PBD240 USNN-UUWW

Flight info

Callsign PBD240
Flight time 3h 17m
Altitude 34000
Route N0450F340 SUGUP G484 HMN L870 UNISO N869 EROGU L991 LURIM N604 UNANI T382 UMPER N604 GEMPU M864 IBROT T535 URIDU L158 DIMGI
Aircraft B738/M-VGDW/C

Departure

Time 2026-04-22 23:11
Airport Nizhnevartovsk Airport (USNN)

Arrival

Time 2026-04-23 02:28
Airport Vnukovo International Airport (UUWW)
Time Latitude Longitude Altitude Speed Heading
2026-04-22 22:52 60.95190 76.49308 185 ft 0 kts 133°
2026-04-22 23:06 60.95190 76.49309 185 ft 0 kts 133°
2026-04-22 23:06 60.95189 76.49309 185 ft 0 kts 133°
2026-04-22 23:06 60.95187 76.49315 185 ft 2 kts 133°
2026-04-22 23:07 60.95174 76.49362 185 ft 5 kts 92°
2026-04-22 23:07 60.95206 76.49381 185 ft 8 kts 320°
2026-04-22 23:07 60.95268 76.49319 185 ft 12 kts 25°
2026-04-22 23:07 60.95340 76.49439 185 ft 15 kts 41°
2026-04-22 23:08 60.95426 76.49597 185 ft 18 kts 42°
2026-04-22 23:08 60.95500 76.49736 185 ft 13 kts 42°
2026-04-22 23:08 60.95577 76.49878 185 ft 16 kts 41°
2026-04-22 23:08 60.95666 76.50043 185 ft 18 kts 42°
2026-04-22 23:09 60.95758 76.50212 185 ft 16 kts 39°
2026-04-22 23:09 60.95861 76.50297 185 ft 17 kts 358°
2026-04-22 23:09 60.95965 76.50291 185 ft 13 kts 352°
2026-04-22 23:09 60.95977 76.50156 185 ft 13 kts 221°
2026-04-22 23:10 60.95974 76.50150 185 ft 0 kts 222°
2026-04-22 23:10 60.95955 76.50115 185 ft 18 kts 223°
2026-04-22 23:10 60.95682 76.49607 185 ft 87 kts 223°
2026-04-22 23:10 60.95080 76.48481 186 ft 145 kts 220°
2026-04-22 23:11 60.94236 76.46944 525 ft 169 kts 220°
2026-04-22 23:11 60.93351 76.45288 1252 ft 177 kts 220°
2026-04-22 23:11 60.92443 76.43602 2140 ft 167 kts 219°
2026-04-22 23:11 60.91643 76.42102 3135 ft 147 kts 217°
2026-04-22 23:12 60.90880 76.40690 3678 ft 156 kts 216°
2026-04-22 23:12 60.90028 76.39136 4062 ft 173 kts 216°
2026-04-22 23:12 60.89196 76.37142 4347 ft 200 kts 239°
2026-04-22 23:12 60.88981 76.34123 4655 ft 229 kts 266°
2026-04-22 23:13 60.89181 76.30802 5243 ft 235 kts 273°
2026-04-22 23:13 60.89494 76.27525 6061 ft 231 kts 276°
2026-04-22 23:13 60.89854 76.24310 6767 ft 233 kts 277°
2026-04-22 23:13 60.90214 76.21029 7345 ft 237 kts 277°
2026-04-22 23:14 60.90621 76.17758 7954 ft 241 kts 279°
2026-04-22 23:14 60.91052 76.14405 8565 ft 243 kts 278°
2026-04-22 23:14 60.91456 76.11013 9177 ft 245 kts 277°
2026-04-22 23:14 60.91831 76.07572 9756 ft 247 kts 276°
2026-04-22 23:15 60.92188 76.04093 10344 ft 249 kts 275°
2026-04-22 23:15 60.92536 76.00580 10908 ft 252 kts 275°
2026-04-22 23:15 60.92881 75.97036 11502 ft 252 kts 274°
2026-04-22 23:15 60.93218 75.93531 12056 ft 254 kts 274°
2026-04-22 23:16 60.93563 75.89911 12538 ft 262 kts 274°
2026-04-22 23:16 60.93915 75.86166 13065 ft 271 kts 273°
2026-04-22 23:16 60.94281 75.82254 13397 ft 286 kts 274°
2026-04-22 23:16 60.94665 75.78104 13680 ft 303 kts 274°
2026-04-22 23:17 60.95067 75.73767 13949 ft 320 kts 274°
2026-04-22 23:17 60.95488 75.69149 14242 ft 334 kts 274°
2026-04-22 23:17 60.95919 75.64391 14791 ft 340 kts 274°
2026-04-22 23:17 60.96346 75.59581 15480 ft 341 kts 274°
2026-04-22 23:18 60.96752 75.54757 16162 ft 341 kts 272°
2026-04-22 23:18 60.97015 75.49921 16818 ft 339 kts 268°
2026-04-22 23:18 60.97152 75.45074 17454 ft 339 kts 266°
2026-04-22 23:18 60.97222 75.40214 18074 ft 340 kts 265°
2026-04-22 23:19 60.97273 75.35389 18638 ft 342 kts 265°
2026-04-22 23:19 60.97332 75.30477 19192 ft 345 kts 265°
2026-04-22 23:19 60.97398 75.25525 19753 ft 347 kts 265°
2026-04-22 23:19 60.97468 75.20534 20299 ft 349 kts 265°
2026-04-22 23:20 60.97541 75.15534 20822 ft 351 kts 265°
2026-04-22 23:20 60.97615 75.10492 21369 ft 352 kts 265°
2026-04-22 23:20 60.97689 75.05427 21855 ft 355 kts 265°
2026-04-22 23:20 60.97763 75.00329 22342 ft 356 kts 265°
2026-04-22 23:21 60.97836 74.95209 22808 ft 359 kts 265°
2026-04-22 23:21 60.97908 74.90034 23251 ft 361 kts 265°
2026-04-22 23:21 60.97978 74.84928 23701 ft 363 kts 265°
2026-04-22 23:21 60.98091 74.79707 24129 ft 366 kts 266°
2026-04-22 23:22 60.98229 74.74457 24531 ft 368 kts 266°
2026-04-22 23:22 60.98351 74.69193 24957 ft 369 kts 266°
2026-04-22 23:22 60.98460 74.63884 25355 ft 370 kts 266°
2026-04-22 23:22 60.98560 74.58556 25733 ft 372 kts 265°
2026-04-22 23:23 60.98653 74.53209 26078 ft 375 kts 265°
2026-04-22 23:23 60.98740 74.47847 26481 ft 375 kts 265°
2026-04-22 23:23 60.98822 74.42516 26801 ft 377 kts 265°
2026-04-22 23:23 60.98901 74.37086 27133 ft 379 kts 265°
2026-04-22 23:24 60.98978 74.31635 27477 ft 381 kts 265°
2026-04-22 23:24 60.99052 74.26156 27791 ft 382 kts 265°
2026-04-22 23:24 60.99123 74.20654 28106 ft 384 kts 265°
2026-04-22 23:24 60.99192 74.15195 28388 ft 386 kts 265°
2026-04-22 23:25 60.99259 74.09651 28677 ft 387 kts 265°
2026-04-22 23:25 60.99323 74.04099 28994 ft 388 kts 265°
2026-04-22 23:25 60.99386 73.98527 29305 ft 389 kts 265°
2026-04-22 23:25 60.99446 73.92972 29699 ft 387 kts 265°
2026-04-22 23:26 60.99503 73.87443 30080 ft 386 kts 265°
2026-04-22 23:26 60.99558 73.81919 30353 ft 387 kts 265°
2026-04-22 23:26 60.99611 73.76354 30595 ft 389 kts 265°
2026-04-22 23:26 60.99662 73.70783 30888 ft 389 kts 266°
2026-04-22 23:27 60.99711 73.65190 31151 ft 390 kts 266°
2026-04-22 23:27 60.99757 73.59658 31395 ft 391 kts 266°
2026-04-22 23:27 60.99801 73.54041 31656 ft 392 kts 266°
2026-04-22 23:27 60.99843 73.48422 31921 ft 393 kts 266°
2026-04-22 23:28 60.99883 73.42789 32168 ft 394 kts 266°
2026-04-22 23:28 60.99920 73.37127 32412 ft 395 kts 266°
2026-04-22 23:28 60.99956 73.31454 32647 ft 396 kts 266°
2026-04-22 23:28 60.99989 73.25755 32845 ft 398 kts 266°
2026-04-22 23:29 61.00020 73.20029 33058 ft 399 kts 266°
2026-04-22 23:29 61.00047 73.14306 33313 ft 399 kts 266°
2026-04-22 23:29 61.00065 73.10509 33490 ft 400 kts 266°
2026-04-22 23:29 61.00097 73.02891 33786 ft 401 kts 266°
2026-04-22 23:30 61.00118 72.97126 33982 ft 402 kts 266°
2026-04-22 23:30 61.00132 72.93229 34124 ft 403 kts 266°
2026-04-22 23:30 61.00149 72.87505 34340 ft 404 kts 266°
2026-04-22 23:30 61.00163 72.81682 34498 ft 406 kts 266°
2026-04-22 23:31 61.00179 72.73970 34795 ft 407 kts 266°
2026-04-22 23:31 61.00186 72.70019 34929 ft 407 kts 266°
2026-04-22 23:31 61.00193 72.64255 35141 ft 408 kts 267°
2026-04-22 23:31 61.00198 72.58391 35330 ft 409 kts 267°
2026-04-22 23:32 61.00206 72.52520 35530 ft 410 kts 268°
2026-04-22 23:32 61.00260 72.46621 35648 ft 412 kts 268°
2026-04-22 23:32 61.00278 72.34718 35661 ft 417 kts 266°
2026-04-22 23:33 61.00238 72.22758 35660 ft 416 kts 266°
2026-04-22 23:33 61.00181 72.10862 35658 ft 415 kts 266°
2026-04-22 23:34 61.00120 71.98956 35656 ft 415 kts 266°
2026-04-22 23:34 61.00059 71.87066 35654 ft 419 kts 266°
2026-04-22 23:35 61.00226 71.75013 35651 ft 420 kts 270°
2026-04-22 23:35 61.00494 71.62987 35648 ft 419 kts 269°
2026-04-22 23:36 61.00837 71.51032 35646 ft 421 kts 270°
2026-04-22 23:36 61.01073 71.38961 35643 ft 420 kts 269°
2026-04-22 23:37 61.01260 71.26916 35640 ft 420 kts 269°
2026-04-22 23:37 61.01436 71.14860 35637 ft 420 kts 269°
2026-04-22 23:38 61.01607 71.02884 35634 ft 420 kts 269°
2026-04-22 23:38 61.01782 70.90811 35631 ft 421 kts 269°
2026-04-22 23:39 61.01947 70.78724 35628 ft 421 kts 268°
2026-04-22 23:39 61.02166 70.66629 35626 ft 422 kts 270°
2026-04-22 23:40 61.02377 70.54591 35623 ft 422 kts 268°
2026-04-22 23:40 61.02507 70.42468 35621 ft 422 kts 268°
2026-04-22 23:41 61.02619 70.30333 35619 ft 422 kts 268°
2026-04-22 23:41 61.02724 70.18270 35618 ft 422 kts 268°
2026-04-22 23:42 61.02831 70.06155 35616 ft 422 kts 268°
2026-04-22 23:42 61.02915 69.94037 35614 ft 423 kts 268°
2026-04-22 23:43 61.02980 69.81869 35613 ft 424 kts 268°
2026-04-22 23:43 61.03148 69.69783 35612 ft 424 kts 269°
2026-04-22 23:44 61.03230 69.57626 35611 ft 424 kts 268°
2026-04-22 23:44 61.03260 69.45472 35611 ft 424 kts 268°
2026-04-22 23:45 61.03277 69.33298 35611 ft 424 kts 268°
2026-04-22 23:45 61.03290 69.21138 35610 ft 424 kts 268°
2026-04-22 23:46 61.03506 69.09043 35610 ft 426 kts 273°
2026-04-22 23:46 61.04291 68.96890 35610 ft 427 kts 275°
2026-04-22 23:47 61.05142 68.84750 35610 ft 428 kts 276°
2026-04-22 23:47 61.06034 68.72660 35610 ft 427 kts 275°
2026-04-22 23:48 61.06804 68.60469 35611 ft 428 kts 274°
2026-04-22 23:48 61.07551 68.48245 35611 ft 428 kts 274°
2026-04-22 23:49 61.08285 68.36105 35611 ft 428 kts 274°
2026-04-22 23:49 61.09023 68.23908 35612 ft 428 kts 274°
2026-04-22 23:50 61.09746 68.11679 35612 ft 429 kts 274°
2026-04-22 23:50 61.10444 67.99412 35612 ft 429 kts 274°
2026-04-22 23:51 61.11123 67.87153 35613 ft 429 kts 274°
2026-04-22 23:51 61.11790 67.74867 35614 ft 430 kts 274°
2026-04-22 23:52 61.12438 67.62631 35614 ft 430 kts 274°
2026-04-22 23:52 61.13081 67.50323 35614 ft 430 kts 274°
2026-04-22 23:53 61.13853 67.38010 35615 ft 431 kts 274°
2026-04-22 23:53 61.14568 67.25703 35615 ft 430 kts 274°
2026-04-22 23:54 61.15235 67.13469 35616 ft 430 kts 274°
2026-04-22 23:54 61.15882 67.01154 35616 ft 430 kts 274°
2026-04-22 23:55 61.16514 66.88800 35617 ft 431 kts 273°
2026-04-22 23:55 61.17133 66.76447 35617 ft 431 kts 273°
2026-04-22 23:56 61.17740 66.64073 35617 ft 431 kts 273°
2026-04-22 23:56 61.18335 66.51706 35610 ft 432 kts 273°
2026-04-22 23:57 61.18916 66.39389 35604 ft 432 kts 273°
2026-04-22 23:57 61.19490 66.26992 35604 ft 432 kts 273°
2026-04-22 23:58 61.20053 66.14550 35603 ft 432 kts 273°
2026-04-22 23:58 61.20606 66.02113 35603 ft 432 kts 273°
2026-04-22 23:59 61.21146 65.89669 35602 ft 434 kts 273°
2026-04-22 23:59 61.21674 65.77252 35601 ft 434 kts 273°
2026-04-23 00:00 61.22448 65.58551 35600 ft 433 kts 272°
2026-04-23 00:01 61.22950 65.46061 35599 ft 433 kts 272°
2026-04-23 00:01 61.23439 65.33602 35599 ft 433 kts 272°
2026-04-23 00:02 61.23918 65.21117 35593 ft 433 kts 272°
2026-04-23 00:02 61.24464 65.08726 35591 ft 433 kts 272°
2026-04-23 00:03 61.24916 64.96240 35592 ft 433 kts 272°
2026-04-23 00:03 61.25334 64.83733 35599 ft 434 kts 272°
2026-04-23 00:04 61.25738 64.71284 35598 ft 434 kts 272°
2026-04-23 00:04 61.26145 64.58727 35598 ft 435 kts 272°
2026-04-23 00:05 61.26553 64.46181 35597 ft 435 kts 272°
2026-04-23 00:05 61.26952 64.33675 35596 ft 435 kts 272°
2026-04-23 00:06 61.27457 64.21106 35595 ft 436 kts 272°
2026-04-23 00:06 61.27852 64.08505 35595 ft 436 kts 272°
2026-04-23 00:07 61.28208 63.95929 35594 ft 436 kts 272°
2026-04-23 00:07 61.28552 63.83399 35593 ft 437 kts 272°
2026-04-23 00:08 61.28780 63.70787 35592 ft 435 kts 266°
2026-04-23 00:08 61.27999 63.58322 35592 ft 434 kts 257°
2026-04-23 00:09 61.26516 63.46153 35592 ft 434 kts 254°
2026-04-23 00:09 61.24977 63.34019 35591 ft 434 kts 256°
2026-04-23 00:10 61.23500 63.21858 35591 ft 434 kts 255°
2026-04-23 00:10 61.21921 63.09772 35591 ft 434 kts 254°
2026-04-23 00:11 61.20330 62.97777 35590 ft 434 kts 254°
2026-04-23 00:11 61.18722 62.85708 35590 ft 434 kts 254°
2026-04-23 00:12 61.17108 62.73605 35597 ft 435 kts 254°
2026-04-23 00:12 61.15496 62.61610 35608 ft 434 kts 254°
2026-04-23 00:13 61.13855 62.49563 35610 ft 434 kts 254°
2026-04-23 00:13 61.12202 62.37520 35610 ft 434 kts 253°
2026-04-23 00:14 61.10543 62.25493 35609 ft 436 kts 253°
2026-04-23 00:14 61.08967 62.13410 35608 ft 436 kts 255°
2026-04-23 00:15 61.07377 62.01319 35607 ft 435 kts 253°
2026-04-23 00:15 61.05968 61.91313 35607 ft 437 kts 253°
2026-04-23 00:16 61.04252 61.79266 35606 ft 436 kts 253°
2026-04-23 00:16 61.02543 61.67318 35605 ft 436 kts 253°
2026-04-23 00:17 61.00823 61.55288 35604 ft 436 kts 252°
2026-04-23 00:17 60.99113 61.43362 35591 ft 436 kts 252°
2026-04-23 00:18 60.97369 61.31366 35583 ft 437 kts 252°
2026-04-23 00:18 60.95608 61.19377 35581 ft 437 kts 252°
2026-04-23 00:19 60.93833 61.07402 35579 ft 437 kts 252°
2026-04-23 00:19 60.92045 60.95444 35570 ft 437 kts 252°
2026-04-23 00:20 60.90295 60.83543 35568 ft 438 kts 253°
2026-04-23 00:20 60.88611 60.71497 35568 ft 438 kts 253°
2026-04-23 00:21 60.86868 60.59517 35569 ft 438 kts 252°
2026-04-23 00:21 60.85089 60.47551 35568 ft 438 kts 252°
2026-04-23 00:22 60.83289 60.35590 35568 ft 439 kts 252°
2026-04-23 00:22 60.81484 60.23703 35568 ft 439 kts 252°
2026-04-23 00:23 60.79653 60.11746 35568 ft 439 kts 252°
2026-04-23 00:23 60.77814 59.99819 35568 ft 438 kts 252°
2026-04-23 00:24 60.75975 59.87974 35568 ft 439 kts 251°
2026-04-23 00:24 60.74115 59.76080 35568 ft 439 kts 251°
2026-04-23 00:25 60.72242 59.64184 35568 ft 439 kts 251°
2026-04-23 00:25 60.70361 59.52318 35568 ft 439 kts 251°
2026-04-23 00:26 60.68480 59.40531 35567 ft 439 kts 251°
2026-04-23 00:26 60.66580 59.28698 35567 ft 439 kts 251°
2026-04-23 00:27 60.64667 59.16872 35567 ft 440 kts 251°
2026-04-23 00:27 60.62741 59.05040 35567 ft 439 kts 251°
2026-04-23 00:28 60.60817 58.93294 35566 ft 439 kts 251°
2026-04-23 00:28 60.58873 58.81509 35566 ft 439 kts 251°
2026-04-23 00:29 60.56918 58.69731 35566 ft 439 kts 251°
2026-04-23 00:29 60.54953 58.57970 35566 ft 439 kts 251°
2026-04-23 00:30 60.52980 58.46232 35565 ft 438 kts 251°
2026-04-23 00:30 60.50999 58.34528 35565 ft 438 kts 251°
2026-04-23 00:31 60.49007 58.22829 35565 ft 438 kts 250°
2026-04-23 00:31 60.47077 58.11160 35564 ft 438 kts 251°
2026-04-23 00:32 60.45074 57.99489 35564 ft 438 kts 250°
2026-04-23 00:32 60.43031 57.87862 35564 ft 438 kts 250°
2026-04-23 00:33 60.40981 57.76276 35563 ft 439 kts 250°
2026-04-23 00:33 60.38915 57.64626 35563 ft 439 kts 250°
2026-04-23 00:34 60.36858 57.53009 35562 ft 439 kts 250°
2026-04-23 00:34 60.34788 57.41392 35562 ft 439 kts 250°
2026-04-23 00:35 60.32716 57.29883 35562 ft 439 kts 250°
2026-04-23 00:35 60.30612 57.18276 35561 ft 440 kts 249°
2026-04-23 00:36 60.28502 57.06708 35561 ft 440 kts 249°
2026-04-23 00:36 60.26374 56.95119 35560 ft 441 kts 249°
2026-04-23 00:37 60.24335 56.83542 35563 ft 441 kts 250°
2026-04-23 00:37 60.22268 56.71907 35559 ft 441 kts 250°
2026-04-23 00:38 60.20153 56.60294 35558 ft 442 kts 249°
2026-04-23 00:38 60.18019 56.48723 35557 ft 441 kts 249°
2026-04-23 00:39 60.15882 56.37222 35557 ft 442 kts 249°
2026-04-23 00:39 60.13715 56.25640 35557 ft 442 kts 249°
2026-04-23 00:40 60.11540 56.14085 35547 ft 442 kts 249°
2026-04-23 00:40 60.09366 56.02606 35542 ft 442 kts 249°
2026-04-23 00:41 60.07238 55.91027 35540 ft 442 kts 249°
2026-04-23 00:41 60.05035 55.79530 35536 ft 442 kts 248°
2026-04-23 00:42 60.02810 55.68122 35536 ft 442 kts 248°
2026-04-23 00:42 60.00562 55.56660 35535 ft 442 kts 248°
2026-04-23 00:43 59.98344 55.45180 35534 ft 442 kts 251°
2026-04-23 00:43 59.96899 55.33244 35533 ft 442 kts 260°
2026-04-23 00:44 59.96067 55.21124 35522 ft 443 kts 261°
2026-04-23 00:44 59.95254 55.08955 35513 ft 443 kts 261°
2026-04-23 00:45 59.93622 54.97226 35508 ft 440 kts 239°
2026-04-23 00:45 59.91748 54.92399 35510 ft 441 kts 224°
2026-04-23 00:45 59.89321 54.88690 35509 ft 442 kts 210°
2026-04-23 00:46 59.83924 54.82980 35514 ft 441 kts 208°
2026-04-23 00:46 59.78485 54.77306 35517 ft 441 kts 208°
2026-04-23 00:47 59.73069 54.71675 35520 ft 441 kts 208°
2026-04-23 00:47 59.67624 54.66034 35523 ft 441 kts 208°
2026-04-23 00:48 59.62173 54.60406 35526 ft 441 kts 208°
2026-04-23 00:48 59.56776 54.54815 35529 ft 441 kts 209°
2026-04-23 00:49 59.51342 54.49129 35532 ft 441 kts 208°
2026-04-23 00:49 59.45908 54.43516 35535 ft 441 kts 208°
2026-04-23 00:50 59.40494 54.37964 35537 ft 441 kts 208°
2026-04-23 00:50 59.35039 54.32395 35540 ft 442 kts 208°
2026-04-23 00:51 59.29569 54.26835 35543 ft 441 kts 208°
2026-04-23 00:51 59.24155 54.21351 35545 ft 440 kts 208°
2026-04-23 00:52 59.18706 54.15852 35547 ft 441 kts 208°
2026-04-23 00:52 59.13264 54.10339 35549 ft 441 kts 208°
2026-04-23 00:53 59.07811 54.04837 35551 ft 441 kts 208°
2026-04-23 00:53 59.02345 53.99398 35553 ft 441 kts 208°
2026-04-23 00:54 58.96904 53.94011 35554 ft 442 kts 208°
2026-04-23 00:54 58.91421 53.88599 35556 ft 442 kts 208°
2026-04-23 00:54 58.88807 53.85501 35551 ft 440 kts 219°
2026-04-23 00:55 58.86669 53.81282 35556 ft 440 kts 233°
2026-04-23 00:55 58.85099 53.76200 35561 ft 441 kts 244°
2026-04-23 00:55 58.83843 53.70784 35557 ft 441 kts 247°
2026-04-23 00:56 58.81637 53.59725 35555 ft 441 kts 249°
2026-04-23 00:56 58.79468 53.48649 35553 ft 441 kts 248°
2026-04-23 00:57 58.77287 53.37583 35551 ft 441 kts 248°
2026-04-23 00:57 58.75215 53.26538 35549 ft 441 kts 250°
2026-04-23 00:58 58.73077 53.15454 35548 ft 441 kts 248°
2026-04-23 00:58 58.70861 53.04405 35546 ft 441 kts 248°
2026-04-23 00:59 58.68639 52.93413 35544 ft 441 kts 248°
2026-04-23 00:59 58.66424 52.82478 35542 ft 441 kts 248°
2026-04-23 01:00 58.64197 52.71487 35541 ft 441 kts 248°
2026-04-23 01:00 58.62018 52.60425 35539 ft 442 kts 248°
2026-04-23 01:01 58.59802 52.49501 35538 ft 442 kts 248°
2026-04-23 01:01 58.57533 52.38534 35536 ft 442 kts 248°
2026-04-23 01:02 58.55257 52.27598 35534 ft 443 kts 248°
2026-04-23 01:02 58.53353 52.18467 35534 ft 443 kts 248°
2026-04-23 01:03 58.50719 52.05707 35531 ft 443 kts 248°
2026-04-23 01:03 58.48836 51.96600 35509 ft 443 kts 248°
2026-04-23 01:04 58.46525 51.85680 35496 ft 443 kts 247°
2026-04-23 01:04 58.43041 51.69334 35495 ft 443 kts 247°
2026-04-23 01:05 58.40770 51.58408 35497 ft 443 kts 249°
2026-04-23 01:05 58.38661 51.47438 35498 ft 442 kts 249°
2026-04-23 01:06 58.36482 51.36484 35499 ft 442 kts 249°
2026-04-23 01:06 58.34298 51.25543 35501 ft 442 kts 249°
2026-04-23 01:07 58.32097 51.14622 35502 ft 442 kts 248°
2026-04-23 01:07 58.29879 51.03704 35503 ft 442 kts 248°
2026-04-23 01:08 58.27667 50.92867 35504 ft 442 kts 248°
2026-04-23 01:08 58.25538 50.81913 35506 ft 442 kts 249°
2026-04-23 01:09 58.23335 50.70998 35504 ft 442 kts 248°
2026-04-23 01:09 58.21084 50.60143 35506 ft 442 kts 248°
2026-04-23 01:10 58.18834 50.49363 35507 ft 442 kts 248°
2026-04-23 01:10 58.16569 50.38533 35508 ft 442 kts 248°
2026-04-23 01:11 58.14301 50.27701 35509 ft 442 kts 248°
2026-04-23 01:11 58.12032 50.16964 35510 ft 442 kts 248°
2026-04-23 01:12 58.09736 50.06185 35511 ft 442 kts 247°
2026-04-23 01:12 58.07431 49.95425 35512 ft 442 kts 247°
2026-04-23 01:13 58.05112 49.84657 35513 ft 442 kts 247°
2026-04-23 01:13 58.02786 49.73916 35514 ft 442 kts 247°
2026-04-23 01:14 58.00557 49.63192 35503 ft 442 kts 248°
2026-04-23 01:14 57.98278 49.52430 35493 ft 441 kts 247°
2026-04-23 01:15 57.95968 49.41718 35493 ft 441 kts 247°
2026-04-23 01:15 57.93636 49.31007 35494 ft 442 kts 247°
2026-04-23 01:16 57.91290 49.20296 35494 ft 443 kts 247°
2026-04-23 01:16 57.88936 49.09611 35478 ft 442 kts 247°
2026-04-23 01:17 57.86606 48.98911 35469 ft 441 kts 248°
2026-04-23 01:17 57.84284 48.88313 35469 ft 441 kts 247°
2026-04-23 01:18 57.81893 48.77704 35470 ft 441 kts 246°
2026-04-23 01:18 57.79487 48.67111 35470 ft 441 kts 246°
2026-04-23 01:19 57.77075 48.56527 35471 ft 441 kts 246°
2026-04-23 01:19 57.74663 48.45945 35471 ft 441 kts 246°
2026-04-23 01:20 57.72254 48.35446 35471 ft 441 kts 246°
2026-04-23 01:20 57.69815 48.24897 35472 ft 441 kts 246°
2026-04-23 01:21 57.67368 48.14365 35471 ft 441 kts 246°
2026-04-23 01:21 57.64937 48.03941 35472 ft 440 kts 246°
2026-04-23 01:22 57.62493 47.93448 35472 ft 440 kts 247°
2026-04-23 01:22 57.60168 47.82878 35472 ft 440 kts 246°
2026-04-23 01:23 57.57713 47.72403 35472 ft 441 kts 246°
2026-04-23 01:23 57.55239 47.62007 35472 ft 441 kts 246°
2026-04-23 01:24 57.52745 47.51570 35472 ft 441 kts 246°
2026-04-23 01:24 57.50248 47.41131 35472 ft 441 kts 246°
2026-04-23 01:25 57.47758 47.30704 35464 ft 441 kts 246°
2026-04-23 01:25 57.45313 47.20223 35438 ft 442 kts 246°
2026-04-23 01:26 57.42810 47.09874 35426 ft 442 kts 245°
2026-04-23 01:26 57.40270 46.99477 35423 ft 442 kts 245°
2026-04-23 01:27 57.37725 46.89096 35422 ft 442 kts 245°
2026-04-23 01:27 57.34760 46.79142 35421 ft 442 kts 232°
2026-04-23 01:28 57.30377 46.71147 35422 ft 444 kts 220°
2026-04-23 01:28 57.25461 46.64218 35422 ft 444 kts 217°
2026-04-23 01:29 57.20524 46.57466 35422 ft 444 kts 217°
2026-04-23 01:29 57.15559 46.50675 35422 ft 444 kts 217°
2026-04-23 01:30 57.10596 46.43897 35422 ft 444 kts 217°
2026-04-23 01:30 57.05638 46.37090 35422 ft 444 kts 218°
2026-04-23 01:31 57.00697 46.30267 35422 ft 444 kts 218°
2026-04-23 01:31 56.95744 46.23477 35421 ft 444 kts 218°
2026-04-23 01:32 56.90825 46.16745 35420 ft 444 kts 217°
2026-04-23 01:32 56.85850 46.10046 35419 ft 444 kts 217°
2026-04-23 01:33 56.80867 46.03373 35418 ft 444 kts 217°
2026-04-23 01:33 56.75874 45.96707 35417 ft 444 kts 217°
2026-04-23 01:34 56.70881 45.90047 35415 ft 445 kts 217°
2026-04-23 01:34 56.65817 45.83560 35413 ft 445 kts 216°
2026-04-23 01:35 56.60755 45.77208 35410 ft 445 kts 216°
2026-04-23 01:35 56.55659 45.70801 35408 ft 445 kts 216°
2026-04-23 01:36 56.50587 45.64335 35405 ft 445 kts 217°
2026-04-23 01:36 56.45522 45.57907 35402 ft 445 kts 216°
2026-04-23 01:37 56.40423 45.51539 35398 ft 445 kts 216°
2026-04-23 01:37 56.35316 45.45192 35395 ft 445 kts 216°
2026-04-23 01:38 56.30253 45.38883 35388 ft 445 kts 218°
2026-04-23 01:38 56.27978 45.35133 35388 ft 443 kts 229°
2026-04-23 01:38 56.26153 45.30660 35387 ft 442 kts 240°
2026-04-23 01:39 56.23508 45.20661 35382 ft 442 kts 248°
2026-04-23 01:39 56.21339 45.10401 35374 ft 441 kts 249°
2026-04-23 01:40 56.19077 45.00131 35368 ft 441 kts 248°
2026-04-23 01:40 56.16779 44.89902 35364 ft 441 kts 248°
2026-04-23 01:41 56.14473 44.79690 35360 ft 441 kts 248°
2026-04-23 01:41 56.12260 44.69492 35356 ft 441 kts 252°
2026-04-23 01:42 56.10908 44.58761 35357 ft 441 kts 262°
2026-04-23 01:42 56.10191 44.47825 35355 ft 441 kts 264°
2026-04-23 01:43 56.09515 44.36894 35352 ft 441 kts 263°
2026-04-23 01:43 56.08824 44.25977 35350 ft 441 kts 263°
2026-04-23 01:44 56.08128 44.15101 35348 ft 441 kts 263°
2026-04-23 01:44 56.07422 44.04174 35347 ft 441 kts 264°
2026-04-23 01:45 56.06803 43.93303 35346 ft 441 kts 264°
2026-04-23 01:45 56.06188 43.82375 35346 ft 441 kts 264°
2026-04-23 01:46 56.05474 43.71459 35344 ft 441 kts 263°
2026-04-23 01:46 56.04726 43.60570 35344 ft 440 kts 263°
2026-04-23 01:47 56.03969 43.49692 35344 ft 440 kts 263°
2026-04-23 01:47 56.03216 43.38891 35345 ft 440 kts 263°
2026-04-23 01:48 56.02942 43.27970 35345 ft 439 kts 271°
2026-04-23 01:48 56.03118 43.17017 35344 ft 440 kts 271°
2026-04-23 01:49 56.03338 43.06147 35344 ft 440 kts 272°
2026-04-23 01:49 56.03549 42.95202 35343 ft 439 kts 271°
2026-04-23 01:50 56.03667 42.86136 35342 ft 438 kts 271°
2026-04-23 01:50 56.03791 42.75253 35342 ft 437 kts 271°
2026-04-23 01:51 56.03909 42.64357 35340 ft 437 kts 271°
2026-04-23 01:51 56.03497 42.53538 35338 ft 437 kts 259°
2026-04-23 01:52 56.01718 42.43190 35337 ft 438 kts 250°
2026-04-23 01:52 55.99405 42.33105 35336 ft 438 kts 248°
2026-04-23 01:53 55.97155 42.22994 35335 ft 438 kts 249°
2026-04-23 01:53 55.94848 42.12932 35332 ft 438 kts 249°
2026-04-23 01:54 55.92502 42.02868 35330 ft 438 kts 248°
2026-04-23 01:54 55.90170 41.92908 35327 ft 438 kts 248°
2026-04-23 01:55 55.87915 41.82821 35323 ft 437 kts 253°
2026-04-23 01:55 55.86711 41.72223 35322 ft 436 kts 264°
2026-04-23 01:56 55.86256 41.61429 35318 ft 436 kts 267°
2026-04-23 01:56 55.85908 41.50709 35314 ft 437 kts 267°
2026-04-23 01:57 55.85549 41.39916 35311 ft 436 kts 267°
2026-04-23 01:57 55.85183 41.29120 35308 ft 436 kts 267°
2026-04-23 01:58 55.84828 41.18297 34954 ft 438 kts 268°
2026-04-23 01:58 55.84734 41.12900 34514 ft 433 kts 268°
2026-04-23 01:58 55.84603 41.07635 34042 ft 430 kts 267°
2026-04-23 01:59 55.84428 41.02334 33569 ft 426 kts 266°
2026-04-23 01:59 55.84239 40.97097 33108 ft 421 kts 266°
2026-04-23 01:59 55.84046 40.91918 32653 ft 417 kts 266°
2026-04-23 01:59 55.83852 40.86785 32205 ft 413 kts 266°
2026-04-23 02:00 55.83658 40.81716 31765 ft 408 kts 265°
2026-04-23 02:00 55.83467 40.76757 31337 ft 403 kts 265°
2026-04-23 02:00 55.83277 40.71813 30913 ft 398 kts 265°
2026-04-23 02:00 55.83090 40.66921 30496 ft 393 kts 265°
2026-04-23 02:01 55.82903 40.62093 30091 ft 388 kts 265°
2026-04-23 02:01 55.82710 40.57310 29688 ft 383 kts 264°
2026-04-23 02:01 55.82516 40.52607 29286 ft 378 kts 264°
2026-04-23 02:01 55.82324 40.48032 28898 ft 374 kts 264°
2026-04-23 02:02 55.82128 40.43419 28502 ft 370 kts 264°
2026-04-23 02:02 55.81935 40.38878 28108 ft 366 kts 264°
2026-04-23 02:02 55.81792 40.34371 27716 ft 363 kts 265°
2026-04-23 02:02 55.81642 40.29916 27328 ft 359 kts 265°
2026-04-23 02:03 55.81468 40.25492 26940 ft 355 kts 264°
2026-04-23 02:03 55.81282 40.21126 26556 ft 352 kts 264°
2026-04-23 02:03 55.81092 40.16810 26175 ft 349 kts 264°
2026-04-23 02:03 55.80901 40.12572 25801 ft 346 kts 264°
2026-04-23 02:04 55.80706 40.08318 25424 ft 343 kts 264°
2026-04-23 02:04 55.80512 40.04109 25049 ft 340 kts 263°
2026-04-23 02:04 55.80319 39.99937 24677 ft 337 kts 264°
2026-04-23 02:04 55.80127 39.95795 24308 ft 335 kts 263°
2026-04-23 02:05 55.79936 39.91691 23938 ft 332 kts 263°
2026-04-23 02:05 55.79747 39.87613 23572 ft 330 kts 263°
2026-04-23 02:05 55.79561 39.83612 23211 ft 327 kts 263°
2026-04-23 02:05 55.79367 39.79543 22846 ft 325 kts 263°
2026-04-23 02:06 55.79135 39.75614 22488 ft 322 kts 262°
2026-04-23 02:06 55.78871 39.71663 22129 ft 320 kts 262°
2026-04-23 02:06 55.78605 39.67757 21773 ft 318 kts 261°
2026-04-23 02:06 55.78338 39.63867 21418 ft 316 kts 261°
2026-04-23 02:07 55.78072 39.60006 21067 ft 314 kts 261°
2026-04-23 02:07 55.77807 39.56169 20716 ft 312 kts 261°
2026-04-23 02:07 55.77543 39.52356 20366 ft 310 kts 261°
2026-04-23 02:07 55.77281 39.48568 20020 ft 308 kts 261°
2026-04-23 02:08 55.77021 39.44791 19674 ft 306 kts 261°
2026-04-23 02:08 55.76761 39.41041 19332 ft 305 kts 261°
2026-04-23 02:08 55.76516 39.37348 18995 ft 303 kts 262°
2026-04-23 02:08 55.76281 39.33644 18658 ft 301 kts 262°
2026-04-23 02:09 55.76032 39.29955 18322 ft 299 kts 261°
2026-04-23 02:09 55.75776 39.26295 17989 ft 298 kts 261°
2026-04-23 02:09 55.75515 39.22655 17657 ft 296 kts 261°
2026-04-23 02:09 55.75253 39.19028 17328 ft 294 kts 261°
2026-04-23 02:10 55.74993 39.15480 17006 ft 292 kts 261°
2026-04-23 02:10 55.74732 39.11910 16682 ft 290 kts 261°
2026-04-23 02:10 55.74471 39.08362 16360 ft 289 kts 261°
2026-04-23 02:10 55.74211 39.04835 16037 ft 287 kts 262°
2026-04-23 02:11 55.73953 39.01328 15717 ft 285 kts 262°
2026-04-23 02:11 55.73697 38.97848 15399 ft 284 kts 262°
2026-04-23 02:11 55.73442 38.94387 15083 ft 282 kts 262°
2026-04-23 02:11 55.73189 38.90936 14769 ft 280 kts 262°
2026-04-23 02:12 55.72930 38.87525 14457 ft 278 kts 262°
2026-04-23 02:12 55.72670 38.84177 14151 ft 277 kts 262°
2026-04-23 02:12 55.72404 38.80797 13841 ft 275 kts 262°
2026-04-23 02:12 55.72140 38.77450 13532 ft 273 kts 262°
2026-04-23 02:13 55.71875 38.74119 13225 ft 271 kts 262°
2026-04-23 02:13 55.71615 38.70805 12922 ft 270 kts 262°
2026-04-23 02:13 55.71362 38.67510 12621 ft 269 kts 263°
2026-04-23 02:13 55.71126 38.64231 12320 ft 267 kts 262°
2026-04-23 02:14 55.70886 38.61011 12024 ft 265 kts 262°
2026-04-23 02:14 55.70639 38.57772 11732 ft 264 kts 262°
2026-04-23 02:14 55.70391 38.54555 11444 ft 262 kts 262°
2026-04-23 02:14 55.70145 38.51359 11149 ft 261 kts 262°
2026-04-23 02:15 55.69646 38.44890 10654 ft 271 kts 263°
2026-04-23 02:15 55.69401 38.41551 10403 ft 275 kts 263°
2026-04-23 02:15 55.69148 38.38209 10158 ft 276 kts 262°
2026-04-23 02:16 55.68885 38.34826 9905 ft 276 kts 262°
2026-04-23 02:16 55.68621 38.31452 9654 ft 275 kts 262°
2026-04-23 02:16 55.68358 38.28108 9402 ft 272 kts 263°
2026-04-23 02:16 55.68103 38.24845 9155 ft 268 kts 263°
2026-04-23 02:17 55.67846 38.21597 8902 ft 265 kts 263°
2026-04-23 02:17 55.67604 38.18385 8652 ft 261 kts 263°
2026-04-23 02:17 55.67357 38.15218 8398 ft 258 kts 263°
2026-04-23 02:17 55.67105 38.12093 8147 ft 254 kts 263°
2026-04-23 02:18 55.66851 38.09004 7892 ft 251 kts 262°
2026-04-23 02:18 55.66599 38.05952 7642 ft 249 kts 262°
2026-04-23 02:18 55.66350 38.02935 7392 ft 247 kts 262°
2026-04-23 02:18 55.66099 37.99936 7141 ft 245 kts 262°
2026-04-23 02:19 55.65852 37.97003 6893 ft 243 kts 262°
2026-04-23 02:19 55.65605 37.94052 6641 ft 241 kts 263°
2026-04-23 02:19 55.65360 37.91120 6393 ft 239 kts 263°
2026-04-23 02:19 55.65074 37.88218 6136 ft 241 kts 257°
2026-04-23 02:20 55.64472 37.85426 5889 ft 243 kts 246°
2026-04-23 02:20 55.63694 37.82773 5640 ft 243 kts 244°
2026-04-23 02:20 55.62862 37.80164 5388 ft 243 kts 243°
2026-04-23 02:20 55.62021 37.77593 5139 ft 245 kts 242°
2026-04-23 02:21 55.61160 37.74990 4890 ft 244 kts 242°
2026-04-23 02:21 55.60309 37.72412 4641 ft 242 kts 242°
2026-04-23 02:21 55.59462 37.69847 4398 ft 239 kts 242°
2026-04-23 02:21 55.58640 37.67360 4131 ft 227 kts 242°
2026-04-23 02:22 55.57873 37.65041 3989 ft 208 kts 242°
2026-04-23 02:22 55.57183 37.62952 3950 ft 187 kts 242°
2026-04-23 02:22 55.56564 37.61080 3923 ft 169 kts 242°
2026-04-23 02:22 55.55981 37.59321 3858 ft 164 kts 242°
2026-04-23 02:23 55.55459 37.57519 3811 ft 167 kts 255°
2026-04-23 02:23 55.55618 37.55520 3762 ft 173 kts 298°
2026-04-23 02:23 55.56427 37.53933 3749 ft 177 kts 313°
2026-04-23 02:23 55.57395 37.52520 3537 ft 180 kts 317°
2026-04-23 02:24 55.58403 37.51229 3336 ft 178 kts 320°
2026-04-23 02:24 55.59463 37.50083 3133 ft 179 kts 327°
2026-04-23 02:24 55.60600 37.49181 2922 ft 180 kts 332°
2026-04-23 02:24 55.61765 37.48386 2729 ft 179 kts 334°
2026-04-23 02:25 55.62724 37.47144 2625 ft 169 kts 296°
2026-04-23 02:25 55.62973 37.45184 2569 ft 168 kts 270°
2026-04-23 02:25 55.62806 37.43127 2360 ft 168 kts 257°
2026-04-23 02:25 55.62491 37.41186 2142 ft 158 kts 253°
2026-04-23 02:26 55.62129 37.39418 1922 ft 147 kts 251°
2026-04-23 02:26 55.61771 37.37805 1742 ft 136 kts 251°
2026-04-23 02:26 55.61430 37.36281 1555 ft 131 kts 251°
2026-04-23 02:26 55.61095 37.34785 1388 ft 130 kts 251°
2026-04-23 02:27 55.60760 37.33294 1217 ft 130 kts 251°
2026-04-23 02:27 55.60427 37.31807 1045 ft 130 kts 251°
2026-04-23 02:27 55.60093 37.30318 873 ft 130 kts 251°
2026-04-23 02:27 55.59764 37.28857 706 ft 130 kts 251°
2026-04-23 02:28 55.59452 37.27454 695 ft 110 kts 249°
2026-04-23 02:28 55.59239 37.26520 694 ft 52 kts 247°
2026-04-23 02:28 55.59193 37.26216 694 ft 14 kts 316°
2026-04-23 02:28 55.59289 37.26249 694 ft 17 kts 22°
2026-04-23 02:29 55.59404 37.26339 694 ft 19 kts 36°
2026-04-23 02:29 55.59471 37.26540 694 ft 18 kts 68°
2026-04-23 02:29 55.59525 37.26765 694 ft 22 kts 60°
2026-04-23 02:29 55.59625 37.26984 694 ft 24 kts 48°
2026-04-23 02:30 55.59717 37.27159 694 ft 19 kts 46°
2026-04-23 02:30 55.59812 37.27333 694 ft 21 kts 45°
2026-04-23 02:30 55.59917 37.27524 694 ft 23 kts 46°
2026-04-23 02:30 55.60010 37.27727 694 ft 18 kts 39°
2026-04-23 02:31 55.60107 37.27880 694 ft 20 kts 56°
2026-04-23 02:31 55.60152 37.28019 694 ft 13 kts 42°
2026-04-23 02:31 55.60183 37.28057 694 ft 0 kts 37°